TimeADT,TemperatureF,Dew PointF,Humidity,Sea Level PressureIn,VisibilityMPH,Wind Direction,Wind SpeedMPH,Gust SpeedMPH,PrecipitationIn,Events,Conditions,WindDirDegrees,DateUTC
12:00 AM,62.6,50.0,63,29.75,15.0,SW,13.8,-,N/A,,Overcast,230,2013-09-08 03:00:00
1:00 AM,62.6,51.8,68,29.73,15.0,SSW,12.7,-,N/A,,Overcast,210,2013-09-08 04:00:00
2:00 AM,60.8,51.8,72,29.73,15.0,SW,12.7,21.9,N/A,,Overcast,220,2013-09-08 05:00:00
2:12 AM,59.0,53.6,82,29.73,15.0,SW,10.4,18.4,N/A,Rain,Light Rain Showers,220,2013-09-08 05:12:00
3:00 AM,58,55,87,29.71,15,SW,8.1,,,Rain,Light Rain Showers,220,2013-09-08 06:00:00
3:00 AM,59.0,55.4,88,29.71,15.0,SSW,6.9,-,N/A,Rain,Light Rain Showers,210,2013-09-08 06:00:00
4:00 AM,59.0,57.2,94,29.70,15.0,SW,11.5,-,N/A,Rain,Light Rain Showers,220,2013-09-08 07:00:00
4:06 AM,59.0,57.2,94,29.70,10.0,SW,9.2,-,N/A,Rain,Light Rain Showers,220,2013-09-08 07:06:00
5:00 AM,59.0,57.2,94,29.68,10.0,SSW,11.5,-,N/A,Rain,Light Rain Showers,200,2013-09-08 08:00:00
6:00 AM,59.0,57.2,94,29.66,15.0,SSW,16.1,-,N/A,Rain,Light Rain Showers,200,2013-09-08 09:00:00
6:44 AM,59.0,57.2,94,29.66,3.0,SSW,12.7,18.4,N/A,Rain,Rain Showers,200,2013-09-08 09:44:00
7:00 AM,59.0,57.2,94,29.65,3.0,SSW,13.8,-,N/A,Rain,Rain Showers,200,2013-09-08 10:00:00
7:17 AM,59.0,57.2,94,29.65,6.0,SSW,12.7,-,N/A,Rain,Light Rain Showers,200,2013-09-08 10:17:00
8:00 AM,59.0,57.2,94,29.64,10.0,SSW,12.7,19.6,N/A,Rain,Light Rain Showers,200,2013-09-08 11:00:00
9:00 AM,59,58,94,29.62,12,SSW,12.7,,,Rain,Light Rain Showers,210,2013-09-08 12:00:00
9:00 AM,59.0,57.2,94,29.62,12.0,SSW,12.7,-,N/A,Rain,Light Rain Showers,210,2013-09-08 12:00:00
9:41 AM,59.0,57.2,94,29.62,12.0,SSW,12.7,-,N/A,Rain,Light Rain Showers,210,2013-09-08 12:41:00
10:00 AM,59.0,57.2,94,29.62,10.0,SW,11.5,-,N/A,Rain,Light Rain Showers,230,2013-09-08 13:00:00
11:00 AM,60.8,57.2,88,29.61,12.0,SW,10.4,-,N/A,Rain,Light Rain Showers,230,2013-09-08 14:00:00
11:44 AM,60.8,57.2,88,29.59,15.0,SW,9.2,-,N/A,,Overcast,220,2013-09-08 14:44:00
12:00 PM,60.8,57.2,88,29.58,15.0,SW,9.2,-,N/A,,Overcast,230,2013-09-08 15:00:00
12:48 PM,60.8,57.2,88,29.57,15.0,SSW,10.4,-,N/A,Rain,Light Rain,210,2013-09-08 15:48:00
1:00 PM,60.8,57.2,88,29.57,4.0,SSW,8.1,-,N/A,Rain,Light Rain,210,2013-09-08 16:00:00
1:08 PM,60.8,57.2,88,29.56,4.0,SSW,8.1,-,N/A,Rain,Rain,200,2013-09-08 16:08:00
1:34 PM,59.0,59.0,100,29.55,6.0,SW,8.1,-,N/A,Rain,Rain,220,2013-09-08 16:34:00
2:00 PM,59.0,57.2,94,29.55,5.0,SW,11.5,19.6,N/A,Rain,Rain,220,2013-09-08 17:00:00
2:22 PM,59.0,57.2,94,29.54,3.0,SW,10.4,-,N/A,Rain,Heavy Rain,220,2013-09-08 17:22:00
2:26 PM,59.0,57.2,94,29.54,5.0,SW,12.7,-,N/A,Rain,Rain,220,2013-09-08 17:26:00
2:38 PM,59.0,57.2,94,29.53,6.0,SW,11.5,18.4,N/A,Rain,Light Rain,220,2013-09-08 17:38:00
3:00 PM,59,58,94,29.53,6,SW,11.5,,,Rain,Rain,220,2013-09-08 18:00:00
3:00 PM,59.0,57.2,94,29.53,6.0,SW,12.7,19.6,N/A,Rain,Rain,220,2013-09-08 18:00:00
3:16 PM,59.0,57.2,94,29.52,6.0,SSW,12.7,19.6,N/A,Rain,Light Rain,210,2013-09-08 18:16:00
3:50 PM,59.0,57.2,94,29.50,10.0,WNW,16.1,28.8,N/A,Rain,Light Rain Showers,290,2013-09-08 18:50:00
4:00 PM,55.4,53.6,94,29.53,10.0,NW,25.3,42.6,N/A,Rain,Light Rain Showers,320,2013-09-08 19:00:00
4:23 PM,55.4,53.6,94,29.56,6.0,NNW,15.0,27.6,N/A,Rain,Light Rain Showers,340,2013-09-08 19:23:00
5:00 PM,55.4,53.6,94,29.57,8.0,NNW,6.9,-,N/A,Rain,Light Rain Showers,330,2013-09-08 20:00:00
6:00 PM,53.6,53.6,100,29.59,8.0,WNW,4.6,-,N/A,Rain,Light Rain Showers,300,2013-09-08 21:00:00
6:43 PM,53.6,53.6,100,29.60,3.0,West,6.9,-,N/A,Rain,Rain Showers,270,2013-09-08 21:43:00
6:49 PM,53.6,53.6,100,29.61,2.0,West,9.2,-,N/A,Rain,Heavy Rain Showers,260,2013-09-08 21:49:00
7:00 PM,53.6,51.8,94,29.60,6.0,WNW,8.1,21.9,N/A,Rain,Light Rain Showers,300,2013-09-08 22:00:00
7:49 PM,53.6,50.0,88,29.62,15.0,WNW,12.7,-,N/A,,Mostly Cloudy,300,2013-09-08 22:49:00
8:00 PM,51.8,50.0,94,29.63,15.0,WNW,12.7,21.9,N/A,,Mostly Cloudy,300,2013-09-08 23:00:00
9:00 PM,51,46,78,29.67,15,WNW,10.4,,,,Partly Cloudy,300,2013-09-09 00:00:00
9:00 PM,50.0,46.4,87,29.67,15.0,WNW,9.2,-,N/A,,Mostly Cloudy,300,2013-09-09 00:00:00
10:00 PM,50.0,44.6,82,29.68,15.0,West,8.1,-,N/A,,Partly Cloudy,270,2013-09-09 01:00:00
11:00 PM,48.2,44.6,87,29.70,15.0,West,10.4,-,N/A,,Scattered Clouds,270,2013-09-09 02:00:00